Location: Chihuahua
(28.6330°N, 106.0830°W)
Time: 13:39:13
(UTC-07:00)

Daily predictions for brighter satellites

Satellite Brightness Start Highest point End
(mag) Time Altitude Azimuth Time Altitude Azimuth Time Altitude Azimuth
Helios 1B rocket 3.8 19:11:56 10° NE 19:14:58 20° E 19:17:59 10° SE
COSMOS 2455 4.3 19:12:50 10° N 19:17:15 21° ENE 19:21:37 10° ESE
Cosmos 1812 2.7 19:15:56 10° S 19:19:46 68° E 19:23:36 10° NNE
Abrixas 3.1 19:18:12 10° NNW 19:20:46 37° NE 19:23:20 10° ESE
FALCON 9 R/B 2.2 19:19:30 10° W 19:22:27 25° SW 19:24:23 10° SSE
Cosmos 1125 Rocket 3.7 19:21:09 10° NNW 19:26:26 76° WSW 19:31:39 10° S
CZ-2D R/B 3.6 19:24:05 10° SSE 19:27:46 47° ENE 19:31:26 10° N
TIMED 4.5 19:26:46 10° NNW 19:31:09 85° ENE 19:35:30 10° SSE
ASTRO E2 3.2 19:29:27 10° W 19:33:24 58° N 19:37:20 10° ENE
Envisat 4.0 19:29:26 10° SE 19:33:42 28° ENE 19:37:59 10° NNE
Cosmos 44 3.5 19:31:40 10° NW 19:35:56 59° WSW 19:40:16 10° SSE
SJ-6B 4.3 19:34:01 10° S 19:37:53 39° W 19:41:47 10° NNW
Iridium 4 Rocket 3.7 19:33:24 10° N 19:38:25 55° E 19:43:53 10° SSE
Tiangong 2 1.2 19:36:16 10° WSW 19:39:27 78° NW 19:42:36 10° NE
Cosmos 1709 Rocket 4.2 19:34:32 10° N 19:40:38 54° E 19:46:38 10° SSE
Okean 1 Rocket 4.4 19:36:56 10° NNW 19:41:09 42° W 19:45:19 10° SSW
H-2A R/B 3.3 19:37:45 10° S 19:41:24 57° W 19:45:04 10° NNW
Cosmos 1975 Rocket 4.2 19:40:24 10° SSW 19:44:42 47° W 19:49:02 10° N
USA 186 1.7 19:48:11 11° SSE 19:51:14 73° ENE 19:54:26 10° N
Aureole 1 Rocket 3.8 19:50:25 18° SE 19:51:30 21° ESE 19:54:04 10° NE
ISS -3.6 19:48:42 10° SSW 19:51:52 47° SE 19:55:03 10° NE
NOSS 2-2 (E) 4.0 19:53:23 10° SW 19:57:17 59° WNW 20:01:29 10° NNE
DEBRIS 4.5 20:00:08 10° W 20:02:39 35° NNW 20:08:24 10° NE
Cosmos 923 Rocket 4.0 19:58:46 10° S 20:04:04 69° ESE 20:09:21 10° NNE
OAO 2 Rocket 4.1 19:59:17 10° W 20:04:04 50° NNW 20:08:56 10° ENE
Cosmos 1437 2.6 20:01:12 10° S 20:04:20 76° E 20:07:33 10° N
CZ-4B DEB 3.4 20:04:06 29° E 20:04:36 31° ENE 20:07:18 10° N
Cosmos 1536 Rocket 3.4 20:02:03 10° S 20:06:22 80° E 20:10:40 10° N
Helios 1A 3.0 20:06:13 21° SSE 20:08:54 64° ENE 20:13:04 10° N
YAOGAN 6 3.3 20:16:33 31° E 20:16:50 32° ENE 20:19:58 10° NNE
SAR-Lupe-4 3.5 20:15:36 36° SE 20:16:53 64° ENE 20:20:26 10° N
Meteor 1-29 3.1 20:13:53 10° N 20:17:14 71° WNW 20:20:27 11° SSW
SJ-11-01 4.2 20:15:19 25° SSE 20:18:00 68° ENE 20:22:39 10° N
Meteor 1-19 Rocket 4.2 20:14:05 10° S 20:19:54 74° E 20:25:40 10° NNE
Cosmos 2184 Rocket 4.4 20:14:50 10° N 20:20:52 45° E 20:23:44 28° SE
Cosmos 2074 Rocket 4.3 20:15:01 10° N 20:21:00 47° E 20:23:58 28° SE
ERS-1 Rocket 3.7 20:21:29 29° ESE 20:22:57 35° ENE 20:27:28 10° N
Cosmos 405 Rocket 2.5 20:21:15 21° S 20:23:37 90° NNW 20:27:23 10° N
Aurora 2 Rocket 4.3 20:18:48 10° W 20:26:42 71° S 20:33:56 22° E
Resurs 01 Rocket 3.8 20:25:11 10° SSW 20:28:45 24° W 20:32:19 10° NW
Cosmos 1656 Rocket 4.0 20:24:17 10° N 20:29:31 46° ENE 20:31:14 35° ESE
Cosmos 1544 Rocket 4.3 20:26:09 10° NNW 20:30:19 50° W 20:33:32 16° SSW
Cosmos 2369 Rocket 3.8 20:25:56 10° NW 20:30:50 31° WSW 20:35:45 10° SSW
NOSS 3-2 (C) 4.5 20:24:19 10° NW 20:32:02 61° WSW 20:38:09 19° S
H-2A R/B 3.9 20:33:29 13° ENE 20:33:29 13° ENE 20:35:38 10° NE
SAR-Lupe-1 4.0 20:32:55 54° S 20:33:40 86° WSW 20:37:15 10° NNW
Cosmos 1025 Rocket 3.5 20:35:24 39° E 20:35:24 39° E 20:39:06 10° NNE
Cosmos 192 4.2 20:33:02 22° S 20:36:14 72° ESE 20:41:07 10° NNE
Cosmos 1441 Rocket 3.1 20:36:21 61° E 20:36:21 61° E 20:39:58 10° NNE
Cosmos 2112 Rocket 3.9 20:31:38 10° SSW 20:36:52 88° WNW 20:42:06 10° NNE
Cosmos 1975 3.9 20:33:02 10° NNW 20:36:54 43° W 20:39:26 19° SSW
Cosmos 1939 Rocket 3.5 20:43:58 33° SSW 20:45:18 48° W 20:49:03 10° NNW
Cosmos 1943 Rocket 3.0 20:40:24 10° NNW 20:45:42 46° WSW 20:48:53 22° SSW
SL-27 R/B 2.8 20:48:02 57° SW 20:48:34 67° WNW 20:52:13 10° N
Nadezhda 1 Rocket 3.9 20:44:24 23° S 20:48:38 86° E 20:55:02 10° N
NOAA 11 4.3 20:49:36 48° ESE 20:50:35 54° ENE 20:55:52 10° N
CENTAUR R/B 3.2 20:45:00 10° NNW 20:53:08 69° ENE 20:56:31 40° SE
COSMOS 2406 4.4 20:49:47 10° SW 20:55:10 41° WNW 21:00:34 10° N
ARGOS 3.6 20:55:04 41° E 20:55:23 41° ENE 21:00:26 10° N
SPOT 5 3.5 21:02:18 36° NE 21:02:18 36° NE 21:05:29 10° N
COSMOS 2455 3.5 20:57:36 10° NW 21:03:21 48° WSW 21:05:37 33° SSW
Cosmos 2154 Rocket 4.1 20:58:19 10° N 21:04:33 55° E 21:05:15 52° ESE
Nimbus 7 Rocket 4.4 20:59:36 10° NNE 21:05:37 64° ESE 21:06:26 58° SE
Cosmos 2082 Rocket 3.9 21:09:49 18° ENE 21:09:49 18° ENE 21:11:37 10° NE
Cosmos 1743 3.9 21:03:48 10° NNW 21:07:24 37° W 21:07:47 36° WSW
ASTRO E2 3.7 21:10:11 10° WNW 21:13:07 45° NW 21:13:07 45° NW
Terra 3.9 21:16:05 15° NE 21:16:05 15° NE 21:17:39 10° NNE
Tiangong 2 4.3 21:14:56 10° NW 21:16:32 13° NNW 21:17:54 11° N
ASTEX 1 4.1 21:16:00 42° SW 21:17:02 49° W 21:21:47 10° NNW
MetOp-B 4.0 21:21:22 78° SW 21:21:36 80° WSW 21:26:58 10° NNW
SPOT 1/Viking Rocket 4.0 21:24:55 49° NE 21:24:55 49° NE 21:29:07 10° N
Cosmos 967 Rocket 4.4 21:22:40 35° SSW 21:25:27 80° WNW 21:31:44 10° NNE
ISS -0.3 21:27:04 10° WNW 21:28:32 12° NW 21:30:00 10° N
Meteor 2-19 Rocket 4.5 21:22:40 10° N 21:28:27 64° ENE 21:28:27 64° ENE
Cosmos 2341 Rocket 4.0 21:26:26 10° N 21:32:34 68° ENE 21:32:34 68° ENE
OAO 2 Rocket 4.5 21:44:41 10° WNW 21:48:58 39° N 21:48:58 39° N
Cosmos 1833 Rocket 3.9 21:53:01 33° NNE 21:53:01 33° NNE 21:56:01 10° NNE
Cosmos 2181 Rocket 4.3 21:57:55 59° W 21:58:14 60° W 22:04:31 10° N
H-2A R/B 3.6 21:44:36 10° WNW 22:02:51 43° SW 22:02:51 43° SW
H-2A R/B 3.4 22:14:07 33° NW 22:14:07 33° NW 22:17:06 10° NNW
USA 267 3.5 22:15:26 10° NE 22:21:19 65° NNW 22:21:19 65° NNW
Cosmos 1980 Rocket 4.3 22:21:57 10° NNE 22:24:11 18° NE 22:24:11 18° NE
Cosmos 2082 Rocket 3.9 22:51:36 27° NW 22:51:36 27° NW 22:55:36 10° N
Terra 4.3 22:54:57 17° NW 22:54:57 17° NW 22:56:16 10° NNW
SL-16 R/B 4.5 23:19:48 10° NNE 23:21:48 17° NNE 23:21:48 17° NNE
